KOREASAT 5 (MUGUNGWHA 5)

Last updated on Oct. 1, 2020, 5:42 a.m. UTC

1 29349U 06034A   20274.93174240 -.00000371  00000-0  00000+0 0  9996
2 29349   0.0137 234.1990 0001939 332.7431 251.6714  1.00270333 51723
UTC
Height (km)
Latitude
Longitude
Inclination
Orbital Period
UTC large
Height (km)
Speed (km/s)
/
Latitude / Longitude
Inclination (degrees)
Orbital Period (minutes)
Azimuth
Elevation
Range (km)
Doppler Factor
iOS Compass Heading
iOS Angle

Next 30 passes for location: Hong Kong

Rise time Rise Azimuth (degrees) Set time Set Azimuth (degrees) Duration Max altitude (degrees)

No matching passes for this satellites